FW3743 Weather Reports


Display with metric or nautical units.
time (UTC)temp
F
wind
direction
speed
MPH
gust
MPH
rain 1hr
in
rain 24hr
in
rain mn
in
humidity
%
barometer
mb
20260904123233 69 0.0 0.0 0.00 0.00 0.00 96 1014.5
20260904122238 69 0.0 0.0 0.00 0.00 0.00 96 1014.5
20260904121233 67 0.0 0.0 0.00 0.00 0.00 97 1014.5
20260904120238 67 0.0 0.0 0.00 0.00 0.00 98 1014.4
20260904115233 66 0.0 0.0 0.00 0.00 0.00 99 1014.5
20260904114239 66 0.0 0.0 0.00 0.00 0.00 98 1014.4
20260904113234 66 0.0 0.0 0.00 0.00 0.00 99 1014.5
20260904112238 66 0.0 0.0 0.00 0.00 0.00 99 1014.2
20260904111233 65 0.0 0.0 0.00 0.00 0.00 99 1014.3
20260904110238 64 0.0 0.0 0.00 0.00 0.00 99 1014.0
20260904105233 64 0.0 0.0 0.00 0.00 0.00 99 1014.1
20260904104238 64 0.0 0.0 0.00 0.00 0.00 99 1013.8
20260904103233 64 0.0 0.0 0.00 0.00 0.00 99 1014.0
20260904102238 64 0.0 0.0 0.00 0.00 0.00 99 1013.7
20260904101234 64 0.0 0.0 0.00 0.00 0.00 99 1013.7
20260904100238 64 0.0 0.0 0.00 0.00 0.00 99 1013.4
20260904095233 64 0.0 0.0 0.00 0.00 0.00 99 1013.7
20260904094238 64 0.0 0.0 0.00 0.00 0.00 99 1013.3
20260904093253 65 0.0 0.0 0.00 0.00 0.00 99 1013.3
20260904092258 65 0.0 0.0 0.00 0.00 0.00 99 1013.3
20260904091234 65 0.0 0.0 0.00 0.00 0.00 99 1013.5
20260904090238 65 0.0 0.0 0.00 0.00 0.00 99 1013.1
20260904085233 66 0.0 0.0 0.00 0.00 0.00 99 1013.0
20260904084258 66 0.0 0.0 0.00 0.00 0.00 99 1013.0
20260904083233 66 0.0 0.0 0.00 0.00 0.00 99 1012.9
20260904082238 66 0.0 0.0 0.00 0.00 0.00 99 1012.6
20260904081233 67 0.0 0.0 0.00 0.00 0.00 99 1013.0
20260904080238 67 0.0 0.0 0.00 0.00 0.00 99 1012.7
20260904075253 67 0.0 0.0 0.00 0.00 0.00 99 1012.6
20260904074238 67 0.0 0.0 0.00 0.00 0.00 99 1012.5
20260904073234 67 0.0 0.0 0.00 0.00 0.00 99 1012.7
20260904072258 67 0.0 0.0 0.00 0.00 0.00 99 1012.4
20260904071233 67 0.0 0.0 0.00 0.00 0.00 99 1012.6
20260904070238 67 0.0 0.0 0.00 0.00 0.00 99 1012.4
20260904065233 66 0.0 0.0 0.00 0.00 0.00 99 1012.8
20260904064238 66 0.0 0.0 0.00 0.00 0.00 99 1012.3
20260904063233 66 0.0 0.0 0.00 0.00 0.00 99 1012.7
20260904062238 66 0.0 0.0 0.00 0.00 0.00 99 1012.6
20260904061253 66 0.0 0.0 0.00 0.00 0.00 99 1012.9
20260904060238 66 0.0 0.0 0.00 0.00 0.00 99 1012.8
20260904055233 67 0.0 0.0 0.00 0.00 0.00 99 1013.0
20260904054238 68 0.0 0.0 0.00 0.00 0.00 99 1013.0
20260904053233 68 0.0 0.0 0.00 0.00 0.00 99 1013.2
20260904052239 68 0.0 0.0 0.00 0.00 0.00 99 1012.9
20260904051233 68 0.0 0.0 0.00 0.00 0.00 99 1013.2
20260904050238 68 0.0 0.0 0.00 0.00 0.00 99 1013.1
20260904045233 68 0.0 0.0 0.00 0.00 0.00 99 1013.2
20260904044258 68 0.0 0.0 0.00 0.00 0.00 99 1013.1
20260904043233 68 0.0 0.0 0.00 0.00 0.00 99 1013.1
20260904042238 69 0.0 0.0 0.00 0.00 0.00 99 1012.8
20260904041233 69 0.0 0.0 0.00 0.00 0.00 99 1013.1
20260904040241 68 0.0 0.0 0.00 0.00 0.00 99 1012.9
20260904035233 68 0.0 0.0 0.00 0.00 0.00 99 1013.0
20260904034233 68 0.0 0.0 0.00 0.00 0.00 99 1012.9
20260904033233 68 0.0 0.0 0.00 0.00 0.00 99 1013.1
20260904032233 68 0.0 0.0 0.00 0.00 0.00 99 1013.0
20260904031233 69 0.0 0.0 0.00 0.00 0.00 99 1013.3
20260904030233 69 0.0 0.0 0.00 0.00 0.00 99 1013.1
20260904025233 69 0.0 0.0 0.00 0.00 0.00 99 1013.2
20260904024233 69 0.0 0.0 0.00 0.00 0.00 99 1012.8
20260904023253 68 0.0 0.0 0.00 0.00 0.00 98 1013.2
20260904022233 69 0.0 0.0 0.00 0.02 0.00 98 1013.1
20260904021233 69 0.0 0.0 0.00 0.02 0.00 97 1013.3
20260904020233 69 0.0 0.0 0.00 0.02 0.00 97 1013.2
20260904015233 69 0.0 0.0 0.00 0.04 0.00 96 1013.6
20260904014233 70 0.0 0.0 0.00 0.07 0.00 95 1013.2
20260904013233 70 0.0 0.0 0.00 0.10 0.00 95 1013.3
20260904012233 70 0.0 0.0 0.00 0.12 0.00 94 1013.0
20260904011253 70 0.0 0.0 0.00 0.15 0.00 93 1012.9
20260904010233 71 0.0 0.0 0.00 0.18 0.00 93 1013.4
20260904005233 71 0.0 0.0 0.00 0.20 0.00 92 1013.5
20260904004233 71 0.0 0.0 0.00 0.21 0.00 91 1013.1
20260904003253 71 0.0 0.0 0.00 0.22 0.00 90 1013.2
20260904002233 72 0.0 0.0 0.00 0.22 0.00 90 1013.0
20260904001233 72 0.0 0.0 0.00 0.22 0.00 88 1013.0
20260904000233 73 0.0 0.0 0.00 0.22 0.00 87 1012.8
20260903235233 74 0.0 0.0 0.00 0.22 0.00 85 1013.0
20260903234233 74 0.0 0.0 0.00 0.22 0.00 82 1012.6
20260903233233 75 0.0 0.0 0.00 0.22 0.00 80 1013.1
20260903232233 76 0.0 0.0 0.00 0.22 0.00 79 1012.9
20260903231233 76 0.0 0.0 0.00 0.22 0.00 77 1012.8
20260903230253 77 0.0 0.0 0.00 0.22 0.00 77 1012.5
20260903225233 77 0.0 0.0 0.00 0.22 0.00 77 1012.7
20260903224233 77 0.0 0.0 0.00 0.22 0.00 78 1012.4
20260903223233 78 0.0 0.0 0.00 0.22 0.00 77 1012.3
20260903222233 78 0.0 0.0 0.00 0.22 0.00 76 1012.4
20260903221233 79 0.0 0.0 0.00 0.22 0.00 76 1012.6
20260903220233 80 0.0 0.0 0.00 0.22 0.00 75 1012.3
20260903215233 80 0.0 0.0 0.00 0.22 0.00 76 1012.5
20260903214233 81 0.0 0.0 0.00 0.22 0.00 75 1012.2
20260903213233 81 0.0 0.0 0.00 0.22 0.00 74 1012.4
20260903212233 81 0.0 0.0 0.00 0.22 0.00 75 1012.2
20260903211233 82 0.0 0.0 0.00 0.22 0.00 74 1012.5
20260903210233 81 0.0 0.0 0.00 0.22 0.00 73 1012.4
20260903205253 82 46 0.0 1.0 0.00 0.22 0.00 70 1012.8
20260903204253 82 5 0.0 2.0 0.00 0.22 0.00 70 1012.7
20260903203233 82 0.0 0.0 0.00 0.22 0.00 70 1012.8
20260903202234 82 322 0.0 2.0 0.00 0.22 0.00 68 1012.7
20260903201233 84 350 2.0 8.0 0.00 0.22 0.00 66 1012.8
20260903200234 84 336 0.0 5.0 0.00 0.22 0.00 66 1012.8
20260903195233 84 0.0 0.0 0.00 0.22 0.00 65 1012.8
20260903194234 84 18 0.0 5.0 0.00 0.22 0.00 66 1012.9
20260903193233 84 0.0 0.0 0.00 0.22 0.00 64 1013.2
20260903192233 84 0.0 0.0 0.00 0.22 0.00 68 1013.1
20260903191233 82 323 0.0 2.0 0.00 0.22 0.00 68 1013.3
20260903190234 82 294 0.0 4.0 0.00 0.22 0.00 67 1013.0
20260903185233 83 303 0.0 1.0 0.00 0.22 0.00 67 1013.2
20260903184233 83 264 0.0 4.0 0.00 0.22 0.00 68 1013.3
20260903183233 83 294 0.0 1.0 0.00 0.22 0.00 68 1013.3
20260903182234 83 323 0.0 1.0 0.00 0.22 0.00 69 1013.2
20260903181233 82 294 0.0 2.0 0.00 0.22 0.00 71 1013.5
20260903180314 82 0.0 0.0 0.00 0.22 0.00 73 1013.3
20260903175233 81 0.0 0.0 0.00 0.22 0.00 72 1013.4
20260903174234 82 238 0.0 4.0 0.00 0.22 0.00 71 1013.4
20260903173233 80 312 1.0 5.0 0.00 0.22 0.00 72 1013.6
20260903172254 81 11 0.0 4.0 0.00 0.22 0.00 72 1013.5
20260903171233 82 328 0.0 4.0 0.00 0.22 0.00 70 1013.6
20260903170254 81 22 0.0 1.0 0.00 0.22 0.00 73 1013.3
20260903165253 80 307 0.0 2.0 0.00 0.22 0.00 73 1013.6
20260903164234 80 294 0.0 5.0 0.00 0.22 0.00 74 1013.7
20260903163313 81 287 0.0 4.0 0.00 0.22 0.00 75 1013.9
20260903162234 80 289 1.0 7.0 0.00 0.22 0.00 79 1013.9
20260903161233 80 343 0.0 5.0 0.00 0.22 0.00 80 1014.2
20260903160234 78 0.0 0.0 0.00 0.22 0.00 84 1013.8
20260903155233 78 274 2.0 8.0 0.00 0.22 0.00 83 1014.2
20260903154254 77 343 0.0 1.0 0.00 0.24 0.00 86 1014.1
20260903153233 76 353 0.0 2.0 0.00 0.26 0.00 87 1014.4
20260903152314 76 286 1.0 7.0 0.00 0.28 0.00 88 1014.2
20260903151253 76 295 3.0 10.0 0.00 0.30 0.00 89 1014.4
20260903150334 74 289 3.0 8.0 0.00 0.34 0.00 93 1014.4
20260903145233 74 0.0 0.0 0.00 0.44 0.00 95 1014.5
20260903144254 73 334 0.0 7.0 0.00 0.50 0.00 96 1014.3
20260903143233 73 299 1.0 5.0 0.00 0.54 0.00 96 1014.4
20260903142234 73 318 0.0 2.0 0.00 0.58 0.00 97 1014.2
20260903141233 72 233 0.0 4.0 0.00 0.61 0.00 97 1014.4
20260903140234 72 283 0.0 4.0 0.00 0.65 0.00 97 1014.0
20260903135233 72 348 0.0 5.0 0.00 1.04 0.00 98 1014.2
20260903134234 71 286 0.0 2.0 0.00 1.30 0.00 98 1014.1
20260903133233 71 311 0.0 2.0 0.00 1.37 0.00 98 1014.2
20260903132234 70 323 0.0 1.0 0.00 1.39 0.00 99 1013.1
20260903131233 70 0.0 0.0 0.00 1.39 0.00 99 1014.2
20260903130234 70 0.0 0.0 0.00 1.40 0.00 99 1013.1
20260903125233 69 0.0 0.0 0.00 1.40 0.00 99 1014.3
20260903124234 69 0.0 0.0 0.00 1.40 0.00 99 1013.2